Location: Lombard
(41.8800°N, 88.0080°W)
Time: 21:16:03
(UTC-05:00)

ZACube-1 - Pass Details

Date: 24 May 2022
Orbit: 581 x 662 km, 97.6° (Epoch: 29 June)

Event Time Altitude Azimuth Distance (km) Brightness Sun altitude
Rises 03:36:38 0° 35° (NE) 2,809 ? -16.3°
Reaches altitude 10° 03:40:10 10° 67° (ENE) 1,903 ? -15.9°
Maximum altitude 03:41:44 12° 90° (E) 1,778 ? -15.7°
Drops below altitude 10° 03:43:19 10° 113° (ESE) 1,902 ? -15.5°
Sets 03:46:49 0° 145° (SE) 2,804 ? -15.0°
